Home   Weather   Sarajevo   Past weeks

Flag for Bosnia-Herzegovina Past Weather in Sarajevo, Bosnia-Herzegovina — Yesterday and Last 2 Weeks

Now
25 °F

Mostly cloudy.


Feels Like: 20 °F
Forecast: 20 / 29 °F
Wind: 3 mph from Northwest

Location: Sarajevo / Butmir

Current Time: Jan 19, 2017 at 10:22:48 pm

Latest Report: Jan 19, 2017 at 10:00 pm


Visibility: 5 mi

Pressure: 30.51 "Hg (28.54 "Hg at 526m altitude)

Humidity: 86%

Dew Point: 21 °F

Location of SarajevoLocation

Past Weather in Sarajevo — Graph

°F

Sarajevo Temperature Yesterday

Maximum temperature yesterday: 28 °F (at 6:00 am)
Minimum temperature yesterday: 25 °F (at 4:00 am)
Average temperature yesterday: 27 °F

High & Low Weather Summary for the Past Weeks

 TemperatureHumidityPressure
High50 °F (Jan 13, 3:30 pm)100% (Jan 4, 9:00 pm)30.51 "Hg (Jan 4, 9:00 pm)
Low-15 °F (Jan 8, 6:30 am)51% (Jan 12, 2:30 pm)29.33 "Hg (Jan 13, 9:00 pm)
Average19 °F84%30.05 "Hg
* Reported Jan 4 9:00 pm — Jan 19 9:00 pm, Sarajevo, Weather by CustomWeather, © 2017

Note: Actual official high and low records may vary slightly from our data, if they occured in-between our weather recording intervals... More about our weather records

Advertising

Sarajevo Weather History for the Previous 24 Hours

Scroll right to see more
 ConditionsComfort  
Time TempWeatherWind HumidityBarometerVisibility
9:00 pm
Thu, Jan 19
25 °FOvercast.3 mph86%30.51 "Hg5 mi
8:30 pm25 °FOvercast.5 mph86%30.51 "Hg5 mi
8:00 pm25 °FOvercast.6 mph86%30.48 "Hg5 mi
7:30 pm25 °FPassing clouds.6 mph86%30.48 "HgN/A
7:00 pm25 °FPassing clouds.6 mph86%30.48 "HgN/A
6:30 pm25 °FPassing clouds.6 mph86%30.48 "HgN/A
6:00 pm27 °FPassing clouds.5 mph80%30.48 "HgN/A
5:30 pm27 °FPassing clouds.5 mph80%30.45 "HgN/A
5:00 pm27 °FPassing clouds.5 mph80%30.45 "HgN/A
4:30 pm27 °FPartly sunny.6 mph74%30.45 "HgN/A
4:00 pm27 °FPartly sunny.6 mph80%30.45 "HgN/A
3:30 pm27 °FPartly sunny.6 mph80%30.45 "HgN/A
3:00 pm27 °FPartly sunny.7 mph80%30.45 "HgN/A
2:30 pm27 °FPartly sunny.6 mph80%30.42 "HgN/A
2:00 pm27 °FPartly sunny.6 mph80%30.42 "HgN/A
1:30 pm27 °FPartly sunny.5 mph74%30.42 "HgN/A
1:00 pm27 °FPartly sunny.7 mph74%30.42 "HgN/A
12:30 pm27 °FPartly sunny.6 mph74%30.42 "HgN/A
12:00 pm27 °FPartly sunny.6 mph80%30.42 "HgN/A
11:30 am25 °FPartly sunny.6 mph86%30.42 "HgN/A
11:00 am25 °FBroken clouds.7 mph80%30.42 "HgN/A
10:30 am25 °FBroken clouds.6 mph80%30.45 "HgN/A
10:00 am25 °FLight snow. Cloudy.5 mph80%30.42 "HgN/A
9:30 am25 °FBroken clouds.7 mph86%30.42 "HgN/A
9:00 am25 °FBroken clouds.6 mph86%30.42 "HgN/A
8:30 am25 °FBroken clouds.6 mph86%30.42 "HgN/A
8:00 am25 °FLight snow. Broken clouds.6 mph86%30.39 "HgN/A
7:30 am25 °FLight snow. Broken clouds.6 mph86%30.39 "Hg5 mi
7:00 am25 °FLight snow. Partly cloudy.5 mph86%30.39 "Hg4 mi
6:30 am25 °FLight snow. Partly cloudy.5 mph93%30.36 "Hg4 mi
6:00 am25 °FLight snow. Ice fog.5 mph93%30.36 "Hg3 mi
5:30 am25 °FSnow. Ice fog.5 mph93%30.36 "Hg2 mi
5:00 am25 °FSnow. Ice fog.6 mph93%30.33 "Hg2 mi
4:00 am25 °FSnow. Ice fog.6 mph93%30.33 "Hg2 mi
3:00 am25 °FLight snow. Ice fog.5 mph93%30.33 "Hg2 mi
2:00 am25 °FSnow. Ice fog.5 mph93%30.33 "Hg2 mi
1:00 am27 °FSnow. Ice fog.2 mph86%30.33 "Hg2 mi
12:00 am27 °FLight snow. Partly cloudy.5 mph86%30.30 "Hg4 mi
11:00 pm
Wed, Jan 18
27 °FLight snow. Overcast.5 mph80%30.33 "Hg4 mi
10:00 pm27 °FLight snow. Overcast.5 mph80%30.33 "Hg4 mi
Weather by CustomWeather, © 2017

See weather overviewHow to use our weather pages